Regional Weather Roundup
Issued by NWS

Home | Current Version | Previous Version | Text Only | Print | Product List | Glossary Off
Versions: 1 2 3 4 5 6 7 8 9 10 11 12 13 14 15 16 17 18 19 20 21 22 23 24 25 26 27

000
ASUS45 KTFX 280010
RWRMT
MONTANA REGIONAL WEATHER ROUNDUP
NATIONAL WEATHER SERVICE GREAT FALLS MT
600 PM MDT SAT AUG 27 2016

NOTE: "FAIR" INDICATES FEW OR NO CLOUDS BELOW 12000 FEET WITH NO
SIGNIFICANT WEATHER AND/OR OBSTRUCTIONS TO VISIBILITY.

MTZ001>007-043-280100-
WEST OF THE DIVIDE

CITY           SKY/WX    TMP DP  RH WIND       PRES   REMARKS
KALISPELL      CLOUDY    81  41  24 SW10      29.71S
MISSOULA       MOSUNNY   84  37  18 W16G22    29.78R
BUTTE          CLOUDY    78  30  17 W10G22    29.93S
MULLAN PASS    CLOUDY    67  36  31 VRB7G20   29.96S
DEER LODGE       N/A     81  36  19 SW6       29.88F
EUREKA           N/A     79  41  25 S10       29.72R
HAMILTON         N/A     84  36  17 W8        29.81F
LIBBY            N/A     82  41  23 S9        29.71R
PLAINS           N/A     84  43  23 SW17      29.76S
RONAN            N/A     81  43  26 SW7       29.84R
$$

MTZ008-052>055-280100-
SOUTHWEST MONTANA

CITY           SKY/WX    TMP DP  RH WIND       PRES   REMARKS
BOZEMAN        MOSUNNY   80  36  20 NE3       29.86S
DILLON         CLOUDY    79  36  21 SW12      29.91S HAZE
W YELLOWSTONE  SUNNY     72  25  17 SW14G23   30.09R
ENNIS          SUNNY     77  25  14 S18       29.98R
THREE FORKS      N/A     82  82 100 SW7       29.85S HX  96
TWIN BRIDGES     N/A     82  33  17 SW13      29.90S
$$

MTZ009-010-012-014-046-048-049-054-280100-
EAST SLOPES AND CENTRAL MONTANA

CITY           SKY/WX    TMP DP  RH WIND       PRES   REMARKS
CUT BANK       CLOUDY    71  40  32 S10       29.73S
GREAT FALLS    CLOUDY    79  35  20 W13       29.76S
MALMSTROM AFB  CLOUDY    79  37  22 MISG      29.76S
HELENA         CLOUDY    84  37  18 W9        29.81R
CHOTEAU          N/A     75  37  25 S10       29.77S
$$

MTZ011-013-016-021-045-047-050-051-280100-
NORTH CENTRAL MONTANA

CITY           SKY/WX    TMP DP  RH WIND       PRES   REMARKS
HAVRE          CLOUDY    84  38  19 W14       29.66R
LEWISTOWN      CLOUDY    81  35  19 W13       29.82R
N BAR RANCH      N/A     79  34  19 NW10      29.85F
CHINOOK          N/A     82  41  23 S8        29.66S
$$

MTZ017>020-022>027-061-062-280100-
NORTHEAST MONTANA

CITY           SKY/WX    TMP DP  RH WIND       PRES   REMARKS
GLASGOW        SUNNY     83  38  20 SW12      29.71S
JORDAN           N/A     85  38  18 SW6       29.74S
SIDNEY         SUNNY     83  51  33 S7        29.77S
WOLF POINT     SUNNY     86  41  20 CALM      29.72F
POPLAR           N/A     84  43  23 S9        29.74F
SCOBEY           N/A     82  42  24 SW12      29.76F
$$

MTZ028>42-056>058-280100-
SOUTHCENTRAL AND SOUTHEAST MONTANA

CITY           SKY/WX    TMP DP  RH WIND       PRES   REMARKS
BAKER          CLOUDY    82  37  20 S6        29.85S
BILLINGS       CLOUDY    83  34  17 SW10      29.82S
LIVINGSTON     MOSUNNY   81  29  15 W10       29.85R
MILES CITY     SUNNY     86  32  14 SW15      29.79S
EKALAKA          N/A     79  39  23 SW3       29.88S
FORSYTH          N/A     84  36  17 SW8G17    29.78S
LAUREL           N/A     83  39  20 SE3       29.84F
ROUNDUP          N/A     85  34  16 W6        29.73F
$$

REGIONAL REPORTS...DAKOTAS

CITY           SKY/WX    TMP DP  RH WIND       PRES   REMARKS
WILLISTON      SUNNY     82  43  25 SE9       29.79F
MINOT          SUNNY     78  43  28 S7        29.85R
DICKINSON      SUNNY     78  38  23 S12       29.84F
CROSBY           N/A     79  39  24 S7        29.83S
WATFORD CITY     N/A     81  45  28 S13       29.82S
BISMARCK       SUNNY     79  50  36 S7        29.87S
GRAND FORKS    CLOUDY    67  60  78 S7        29.89F
FARGO          MOSUNNY   72  59  63 SE9G22    29.92R
BUFFALO SD       N/A     79  47  32 SE15      29.81F
RAPID CITY     CLOUDY    80  47  31 W7        29.89R
$$

REGIONAL REPORTS...WYOMING/IDAHO/WASHINGTON

CITY           SKY/WX    TMP DP  RH WIND       PRES   REMARKS
GILLETTE       CLOUDY    81  28  14 W16G22    29.90R
SHERIDAN       SUNNY     84  34  16 E3        29.88S
BUFFALO WY     CLOUDY    80  34  19 N7        29.96R
CODY           SUNNY     79  30  17 SE12      29.94S
YELLOWSTONE LA   N/A     65  21  18 VRB6      30.19R
IDAHO FALLS    SUNNY     81  30  15 S15G24    29.98F
SALMON         SUNNY     84  34  16 CALM      29.80F
BOISE          SUNNY     89  31  12 N7        29.85F
SPOKANE        CLOUDY    82  40  22 W25G35    29.74S
$$

REGIONAL REPORTS...ALBERTA

CITY           SKY/WX    TMP DP  RH WIND       PRES   REMARKS
EDMONTON       LGT RAIN  59  55  88 W6        29.62S
CALGARY        LGT RAIN  63  54  72 N22G30    29.67R
LETHBRIDGE     PTSUNNY   79  45  29 W15G30    29.63S
MEDICINE HAT   PTSUNNY   79  46  31 SW13      29.59R
MILK RIVER       N/A     73  39  29 SW7         N/A
ONEFOUR          N/A     79  36  21 W18G25      N/A
$$

REGIONAL REPORTS...SASKATCHEWAN

CITY           SKY/WX    TMP DP  RH WIND       PRES   REMARKS
SWIFT CURRENT  SUNNY     77  45  31 S13G21    29.64S
REGINA         PTSUNNY   79  43  27 S10       29.74S
SASKATOON      PTSUNNY   77  50  38 SE18      29.63F
CYPRESS HILLS    N/A     72  39  30 W9          N/A
VAL MARIE        N/A     79  41  25 S10         N/A
$$




USA.gov is the U.S. government's official web portal to all federal, state and local government web resources and services.